Voltar ao catálogo

STARLINK-30480

AtivoComunicaçõesVLEO
NORAD 58069·PAYLOAD·🇺🇸 United States

Lançado Oct 13, 2023 de Cape Canaveral Space Force Station

Loading…

Próximas Passagens (próximas 24 horas)

TLE

AtualizadoSource: CelesTrak SupGP

Época: Sep 14, 2026, 22:24 UTC

1 58069C 23158U   26257.93381944  .00039172  00000+0  14192-2 0  2577
2 58069  43.0008 256.0816 0001742 257.1626 100.6511 15.27550126    15

Acompanhe STARLINK-30480 em tempo real com AllMySat

Download on the App Store